Sioux Falls, SD

5:47 PM CST on November 20, 2017 (GMT -0600)
Foss

Weather History for KFSD - February, 2012

Change the Weather History Date:

Thursday, February 16, 2012

  Actual Average Record
Temperature  
Mean Temperature 32 °F 22 °F  
Max Temperature 44 °F 32 °F 64 °F (1981)
Min Temperature 19 °F 12 °F -30 °F (1936)
Degree Days  
Heating Degree Days 33 43  
Month to date heating degree days 626 727  
Since 1 July heating degree days 4517 5359  
Cooling Degree Days 0 0  
Month to date cooling degree days 0 0  
Year to date cooling degree days 0 0  
Moisture  
Dew Point 19 °F    
Average Humidity 66    
Maximum Humidity 85    
Minimum Humidity 32    
Precipitation  
Precipitation 0.00 in 0.01 in 0.68 in (1932)
Month to date precipitation 0.03 0.29  
Year to date precipitation 0.78 0.85  
Snow  
Snow 0.00 in 0.20 in 8.00 in (1938)
Month to date snowfall 0.4 3.8  
Since 1 July snowfall 9.1 28.4  
Snow Depth 0.00 in    
Sea Level Pressure  
Sea Level Pressure 30.14 in    
Wind  
Wind Speed 8 mph (WSW)    
Max Wind Speed 17 mph    
Max Gust Speed 23 mph    
Visibility 10 miles    
Events      
T = Trace of Precipitation, MM = Missing Value Source: NWS Daily Summary

Daily Weather History Graph

Daily Weather History Graph

Search for Another Location

Airport or City:

Trip Planner

Search our weather history database for the weather conditions in past years. The results will help you decide how hot, cold, wet, or windy it might be!

Date:

Astronomy

Feb. 16, 2012 Rise Set
Actual Time 7:24 AM CST 5:58 PM CST
Civil Twilight 6:55 AM CST 6:27 PM CST
Nautical Twilight 6:21 AM CST 7:01 PM CST
Astronomical Twilight 5:48 AM CST 7:34 PM CST
Moon 3:27 AM CST (2/16) 12:44 PM CST (2/16)
Length of Visible Light 11h 32m
Length of Day
10h 33m
Waning Crescent, 28% of the Moon is Illuminated
Feb 16
Waning Crescent
Feb 21
New
Feb 29
First Quarter
Mar 8
Full
Mar 14
Last Quarter

Hourly Weather History & Observations

Time (CST) Temp. Windchill Dew Point Humidity Pressure Visibility Wind Dir Wind Speed Gust Speed Precip Events Conditions
12:56 AM 23.0 °F 18.4 °F 18.0 °F 81% 30.15 in 10.0 mi SW 3.5 mph - N/A   Clear
1:56 AM 21.9 °F - 18.0 °F 85% 30.16 in 10.0 mi Calm Calm - N/A   Clear
2:56 AM 19.9 °F - 16.0 °F 85% 30.16 in 10.0 mi Calm Calm - N/A   Clear
3:56 AM 21.9 °F 13.4 °F 17.1 °F 82% 30.15 in 10.0 mi West 6.9 mph - N/A   Clear
4:56 AM 21.9 °F 15.7 °F 17.1 °F 82% 30.17 in 10.0 mi West 4.6 mph - N/A   Clear
5:56 AM 21.9 °F 13.4 °F 17.1 °F 82% 30.17 in 10.0 mi West 6.9 mph - N/A   Clear
6:56 AM 19.9 °F 8.6 °F 15.1 °F 81% 30.20 in 10.0 mi West 10.4 mph - N/A   Clear
7:56 AM 21.2 °F 10.9 °F 15.8 °F 80% 30.16 in 10.0 mi WNW 9.2 mph - N/A   Clear
8:56 AM 24.1 °F 15.2 °F 17.1 °F 75% 30.25 in 10.0 mi West 8.1 mph - N/A   Clear
9:56 AM 28.0 °F 18.6 °F 19.9 °F 72% 30.25 in 10.0 mi West 10.4 mph - N/A   Clear
10:56 AM 33.1 °F 25.5 °F 19.9 °F 59% 30.23 in 10.0 mi WNW 9.2 mph - N/A   Clear
11:56 AM 37.4 °F 30.3 °F 17.6 °F 45% 30.16 in 10.0 mi West 10.4 mph - N/A   Clear
12:56 PM 39.9 °F 32.1 °F 16.0 °F 38% 30.19 in 10.0 mi WNW 13.8 mph 23.0 mph N/A   Clear
1:56 PM 41.0 °F 33.9 °F 14.0 °F 33% 30.16 in 10.0 mi WNW 12.7 mph 21.9 mph N/A   Partly Cloudy
2:56 PM 43.0 °F 37.7 °F 17.1 °F 35% 30.15 in 10.0 mi West 9.2 mph - N/A   Clear
3:56 PM 44.1 °F 39.0 °F 16.0 °F 32% 30.13 in 10.0 mi West 9.2 mph - N/A   Partly Cloudy
4:56 PM 43.0 °F 38.8 °F 16.0 °F 34% 30.12 in 10.0 mi WSW 6.9 mph - N/A   Clear
5:56 PM 35.6 °F 27.5 °F 24.8 °F 65% 30.06 in 10.0 mi South 11.5 mph 18.4 mph N/A   Clear
6:56 PM 34.0 °F 26.0 °F 21.9 °F 61% 30.12 in 10.0 mi South 10.4 mph - N/A   Partly Cloudy
7:56 PM 32.0 °F 24.2 °F 21.9 °F 66% 30.11 in 10.0 mi South 9.2 mph - N/A   Partly Cloudy
8:56 PM 32.0 °F 23.0 °F 24.1 °F 73% 30.09 in 10.0 mi South 11.5 mph - N/A   Partly Cloudy
9:56 PM 32.0 °F 23.0 °F 25.0 °F 75% 30.06 in 10.0 mi South 11.5 mph - N/A   Scattered Clouds
10:56 PM 30.0 °F 22.4 °F 25.0 °F 82% 30.04 in 10.0 mi SSW 8.1 mph - N/A   Partly Cloudy
11:56 PM 30.0 °F 23.2 °F 25.0 °F 82% 30.02 in 10.0 mi SSW 6.9 mph - N/A   Scattered Clouds